Location: Grand Mazuras
(45.9128°N, 1.7636°E)
Time: 05:04:11
(UTC+00:00)

Spot 2 Rocket - Pass Details

Date: 18 April 2021
Orbit: 756 x 773 km, 98.5° (Epoch: 10 May)

Event Time Altitude Azimuth Distance (km) Brightness Sun altitude
Exits shadow 21:21:43 51° 192° (SSW) 966 3.7 -23.7°
Maximum altitude 21:22:56 72° 257° (WSW) 811 3.6 -23.8°
Drops below altitude 10° 21:28:02 10° 342° (NNW) 2,312 6.9 -24.4°
Sets 21:30:21 0° 345° (NNW) 3,240 7.8 -24.7°
